Chihuahua, Mexico

2:09 PM MST on March 29, 2017 (GMT -0700)
Gen Div P A Roberto Fierro

Weather History for MMCU - December, 2013

Change the Weather History Date:

Saturday, December 28, 2013

  Actual Average Record
Temperature  
Mean Temperature 48 °F -  
Max Temperature 62 °F 62 °F 86 °F (2006)
Min Temperature 33 °F 30 °F 17 °F (2007)
Degree Days  
Heating Degree Days 18    
Moisture  
Dew Point 30 °F    
Average Humidity 55    
Maximum Humidity 93    
Minimum Humidity 30    
Precipitation  
Precipitation 0.00 in - - ()
Sea Level Pressure  
Sea Level Pressure 30.10 in    
Wind  
Wind Speed 4 mph ()    
Max Wind Speed 12 mph    
Max Gust Speed -    
Visibility 9.1 miles    
Events      
Averages and records for this station are not official NWS values.
T = Trace of Precipitation, MM = Missing Value Source: Averaged Metar Reports

Daily Weather History Graph

Daily Weather History Graph

Search for Another Location

Airport or City:

Trip Planner

Search our weather history database for the weather conditions in past years. The results will help you decide how hot, cold, wet, or windy it might be!

Date:

Astronomy

Dec. 28, 2013 Rise Set
Actual Time 6:55 AM MST 5:15 PM MST
Civil Twilight 6:29 AM MST 5:41 PM MST
Nautical Twilight 6:00 AM MST 6:11 PM MST
Astronomical Twilight 5:31 AM MST 6:39 PM MST
Moon 2:46 AM MST (12/28) 1:59 PM MST (12/28)
Length of Visible Light 11h 11m
Length of Day
10h 19m
Waning Crescent, 18% of the Moon is Illuminated
Dec 28
Waning Crescent
Jan 1
New
Jan 7
First Quarter
Jan 15
Full
Jan 23
Last Quarter

Hourly Weather History & Observations

Time (MST) Temp. Windchill Dew Point Humidity Pressure Visibility Wind Dir Wind Speed Gust Speed Precip Events Conditions
4:40 AM 30.2 °F 22.6 °F 26.6 °F 86% 30.19 in 10.0 mi South 8.1 mph - N/A   Clear
4:59 AM 36 °F - 33 °F 86% 30.09 in 1 mi NNW 2.2 mph - -   Mostly Cloudy
5:40 AM 33.8 °F - 30.2 °F 87% 30.21 in 10.0 mi Calm Calm - N/A   Partly Cloudy
6:45 AM 30.2 °F - 26.6 °F 86% 30.21 in 10.0 mi Calm Calm - N/A   Partly Cloudy
7:37 AM 36 °F - 30 °F 72% 30.13 in 6 mi Calm Calm - -  
7:42 AM 32.0 °F - 30.2 °F 93% 30.18 in 10.0 mi Calm Calm - N/A   Clear
8:40 AM 39.2 °F 35.9 °F 30.2 °F 70% 30.23 in 10.0 mi SSW 4.6 mph - N/A   Clear
9:40 AM 46.4 °F - 30.2 °F 53% 30.23 in 10.0 mi Calm Calm - N/A   Clear
10:38 AM 55 °F - 37 °F 40% 30.11 in 6 mi SSW 2.2 mph - -  
10:42 AM 53.6 °F - 32.0 °F 44% 30.17 in 10.0 mi South 6.9 mph - N/A   Partly Cloudy
11:40 AM 57.2 °F - 32.0 °F 38% 30.16 in 10.0 mi SSW 11.5 mph - N/A   Scattered Clouds
12:40 PM 60.8 °F - 30.2 °F 31% 30.09 in 10.0 mi SSW 10.4 mph - N/A   Scattered Clouds
1:40 PM 60.8 °F - 30.2 °F 31% 30.01 in 10.0 mi SSE 11.5 mph - N/A   Partly Cloudy
2:40 PM 62.6 °F - 30.2 °F 30% 30.02 in 10.0 mi SE 8.1 mph - N/A   Scattered Clouds
3:40 PM 62.6 °F - 30.2 °F 30% 29.99 in 10.0 mi SSE 5.8 mph - N/A   Scattered Clouds
4:40 PM 59.0 °F - 30.2 °F 34% 29.96 in 10.0 mi SSE 8.1 mph - N/A   Scattered Clouds
5:40 PM 51.8 °F - 28.4 °F 41% 29.99 in 10.0 mi South 6.9 mph - N/A   Mostly Cloudy
6:40 PM 48.2 °F - 28.4 °F 46% 30.00 in 10.0 mi South 10.4 mph - N/A   Overcast
7:40 PM 51.8 °F - 30.2 °F 44% 30.02 in 10.0 mi SSW 9.2 mph - N/A   Mostly Cloudy
8:40 PM 46.4 °F - 28.4 °F 50% 30.02 in 10.0 mi Calm Calm - N/A   Mostly Cloudy